GLOBALSTAR M096

Last updated on Mon Sep 21 2026 00:03:12 GMT+0000 (Coordinated Universal Time)

1 39075U 13005D 26263.01189406 -.00000086 00000+0 10167-3 0 9993 2 39075 52.0063 270.9627 0000437 109.2303 250.8611 12.62264556629365
UTC large
Height (km)
Speed (km/s)
/
Latitude / Longitude
Inclination (degrees)
Orbital Period (minutes)
Azimuth
Elevation
Range (km)
Doppler Factor

Next 0 passes for location: London (51.5072 / 0.1276)

No passes found over London.
GLOBALSTAR M096